Location: Wapato
(46.4478°N, 120.4212°W)
Time: 10:14:00
(UTC+00:00)

Injun/Solrad 3 - Pass Details

Date: 13 May 2026
Orbit: 867 x 989 km, 66.8° (Epoch: 10 June)

Event Time Altitude Azimuth Distance (km) Brightness Sun altitude
Rises 06:50:55 0° 328° (NNW) 3,660 12.3 -23.4°
Reaches altitude 10° 06:54:00 10° 341° (NNW) 2,727 11.4 -23.5°
Maximum altitude 06:59:08 25° 35° (NE) 1,895 9.9 -23.8°
Drops below altitude 10° 07:04:17 10° 88° (E) 2,749 10.2 -24.0°
Enters shadow 07:05:44 - 96° (E) 3,171 10.5 -24.1°
Sets 07:07:24 0° 102° (ESE) 3,696 - -24.1°
